• In Uzbekistan
  • List of Countries
  • For 7 days
  • Water Temperature
  • Satellite Maps
  • Weather Map
  • Weather Widgets
  • user-avatar
    Login

    Hourly Weather Viedma

    Today, 4 December, Sunday

    Time Temperature Precipitation Wind Pressure Humidity
    00:00 +22°C° 0 mm 9 mps 752 mmHg 51%
    01:00 +22°C° 0 mm 9 mps 752 mmHg 49%
    02:00 +22°C° 0 mm 8 mps 752 mmHg 47%
    03:00 +22°C° 0 mm 7 mps 751 mmHg 44%
    04:00 +22°C° 0 mm 7 mps 751 mmHg 42%
    05:00 +22°C° 0 mm 6 mps 751 mmHg 39%
    06:00 +24°C° 0.1 mm 7 mps 751 mmHg 37%
    07:00 +27°C° 0.1 mm 8 mps 751 mmHg 35%
    08:00 +29°C° 0.1 mm 8 mps 751 mmHg 33%
    09:00 +31°C° 0.1 mm 8 mps 751 mmHg 32%
    10:00 +33°C° 0.1 mm 8 mps 750 mmHg 30%
    11:00 +34°C° 0.1 mm 7 mps 750 mmHg 29%
    12:00 +33°C° 0 mm 6 mps 750 mmHg 30%
    13:00 +33°C° 0 mm 5 mps 749 mmHg 32%
    14:00 +31°C° 0 mm 3 mps 749 mmHg 34%
    15:00 +29°C° 2.2 mm 4 mps 748 mmHg 44%
    16:00 +26°C° 2.2 mm 5 mps 747 mmHg 54%
    17:00 +23°C° 2.2 mm 5 mps 746 mmHg 63%
    18:00 +22°C° 3.8 mm 6 mps 747 mmHg 70%
    19:00 +21°C° 3.8 mm 7 mps 747 mmHg 77%
    20:00 +20°C° 3.8 mm 7 mps 748 mmHg 84%
    21:00 +20°C° 0.6 mm 6 mps 748 mmHg 85%
    22:00 +21°C° 0.6 mm 5 mps 748 mmHg 85%
    23:00 +21°C° 0.6 mm 3 mps 748 mmHg 86%

    Tomorrow, 5 December, Monday

    Time Temperature Precipitation Wind Pressure Humidity
    00:00 +21°C° 0.2 mm 4 mps 748 mmHg 80%
    01:00 +21°C° 0.2 mm 5 mps 747 mmHg 75%
    02:00 +21°C° 0.2 mm 6 mps 747 mmHg 70%
    03:00 +20°C° 0 mm 7 mps 747 mmHg 63%
    04:00 +18°C° 0 mm 8 mps 747 mmHg 56%
    05:00 +17°C° 0 mm 9 mps 747 mmHg 50%
    06:00 +18°C° 0 mm 10 mps 747 mmHg 46%
    07:00 +19°C° 0 mm 11 mps 748 mmHg 43%
    08:00 +22°C° 0 mm 12 mps 748 mmHg 39%
    09:00 +22°C° 0 mm 11 mps 748 mmHg 37%
    10:00 +23°C° 0 mm 11 mps 748 mmHg 35%
    11:00 +23°C° 0 mm 10 mps 748 mmHg 33%
    12:00 +24°C° 0 mm 11 mps 748 mmHg 30%
    13:00 +26°C° 0 mm 11 mps 747 mmHg 27%
    14:00 +26°C° 0 mm 11 mps 747 mmHg 24%
    15:00 +24°C° 0 mm 12 mps 747 mmHg 32%
    16:00 +22°C° 0 mm 13 mps 747 mmHg 40%
    17:00 +20°C° 0 mm 13 mps 747 mmHg 48%
    18:00 +18°C° 0.1 mm 13 mps 749 mmHg 54%
    19:00 +17°C° 0.1 mm 13 mps 750 mmHg 59%
    20:00 +14°C° 0.1 mm 13 mps 751 mmHg 64%
    21:00 +14°C° 0 mm 12 mps 752 mmHg 63%
    22:00 +14°C° 0 mm 11 mps 752 mmHg 61%
    23:00 +15°C° 0 mm 9 mps 753 mmHg 59%

    Day after tomorrow, 6 December, Tuesday

    Time Temperature Precipitation Wind Pressure Humidity
    00:00 +15°C° 0 mm 9 mps 753 mmHg 60%
    01:00 +15°C° 0 mm 8 mps 753 mmHg 61%
    02:00 +14°C° 0 mm 7 mps 753 mmHg 61%
    03:00 +14°C° 0 mm 7 mps 753 mmHg 62%
    04:00 +14°C° 0 mm 7 mps 753 mmHg 63%
    05:00 +14°C° 0 mm 7 mps 753 mmHg 64%
    06:00 +16°C° 0 mm 7 mps 753 mmHg 59%
    07:00 +17°C° 0 mm 8 mps 753 mmHg 55%
    08:00 +20°C° 0 mm 8 mps 754 mmHg 50%
    09:00 +21°C° 0 mm 8 mps 754 mmHg 47%
    10:00 +22°C° 0 mm 8 mps 754 mmHg 44%
    11:00 +23°C° 0 mm 8 mps 754 mmHg 42%
    12:00 +23°C° 0 mm 8 mps 754 mmHg 39%
    13:00 +24°C° 0 mm 8 mps 754 mmHg 36%
    14:00 +24°C° 0 mm 8 mps 754 mmHg 34%
    15:00 +24°C° 0 mm 7 mps 753 mmHg 34%
    16:00 +24°C° 0 mm 7 mps 753 mmHg 35%
    17:00 +23°C° 0 mm 6 mps 753 mmHg 36%
    18:00 +22°C° 0 mm 6 mps 753 mmHg 43%
    19:00 +21°C° 0 mm 5 mps 753 mmHg 50%
    20:00 +19°C° 0 mm 4 mps 753 mmHg 57%
    21:00 +19°C° 0 mm 3 mps 754 mmHg 59%
    22:00 +18°C° 0 mm 2 mps 754 mmHg 62%
    23:00 +17°C° 0 mm 2 mps 754 mmHg 65%

    7 December, Wednesday

    Time Temperature Precipitation Wind Pressure Humidity
    00:00 +17°C° 0 mm 2 mps 754 mmHg 65%
    01:00 +17°C° 0 mm 2 mps 754 mmHg 66%
    02:00 +17°C° 0 mm 3 mps 754 mmHg 66%
    03:00 +17°C° 0 mm 3 mps 754 mmHg 67%
    04:00 +17°C° 0 mm 4 mps 754 mmHg 68%
    05:00 +16°C° 0 mm 5 mps 754 mmHg 69%
    06:00 +17°C° 0 mm 6 mps 755 mmHg 63%
    07:00 +20°C° 0 mm 8 mps 755 mmHg 56%
    08:00 +22°C° 0 mm 9 mps 756 mmHg 50%
    09:00 +22°C° 0 mm 10 mps 756 mmHg 51%
    10:00 +22°C° 0 mm 10 mps 756 mmHg 52%
    11:00 +22°C° 0 mm 11 mps 757 mmHg 52%
    12:00 +21°C° 0 mm 11 mps 757 mmHg 51%
    13:00 +19°C° 0 mm 10 mps 757 mmHg 51%
    14:00 +19°C° 0 mm 10 mps 757 mmHg 50%
    15:00 +18°C° 0 mm 10 mps 758 mmHg 49%
    16:00 +18°C° 0 mm 9 mps 758 mmHg 48%
    17:00 +17°C° 0 mm 8 mps 758 mmHg 47%
    18:00 +16°C° 0 mm 7 mps 758 mmHg 50%
    19:00 +15°C° 0 mm 6 mps 759 mmHg 52%
    20:00 +14°C° 0 mm 5 mps 759 mmHg 55%
    21:00 +14°C° 0 mm 3 mps 759 mmHg 57%
    22:00 +15°C° 0 mm 2 mps 759 mmHg 58%
    23:00 +13°C° 0 mm 0 mps 759 mmHg 59%

    8 December, Thursday

    Time Temperature Precipitation Wind Pressure Humidity
    00:00 +14°C° 0 mm 1 mps 758 mmHg 60%
    01:00 +14°C° 0 mm 1 mps 758 mmHg 60%
    02:00 +14°C° 0 mm 1 mps 758 mmHg 61%
    03:00 +13°C° 0 mm 2 mps 757 mmHg 60%
    04:00 +12°C° 0 mm 3 mps 757 mmHg 60%
    05:00 +12°C° 0 mm 4 mps 757 mmHg 60%
    06:00 +14°C° 0 mm 6 mps 757 mmHg 52%
    07:00 +16°C° 0 mm 7 mps 757 mmHg 45%
    08:00 +18°C° 0 mm 9 mps 757 mmHg 37%
    09:00 +21°C° 0 mm 9 mps 756 mmHg 35%
    10:00 +23°C° 0 mm 9 mps 755 mmHg 32%
    11:00 +26°C° 0 mm 10 mps 755 mmHg 29%
    12:00 +27°C° 0 mm 9 mps 754 mmHg 28%
    13:00 +28°C° 0 mm 9 mps 753 mmHg 26%
    14:00 +29°C° 0 mm 8 mps 752 mmHg 25%
    15:00 +28°C° 0 mm 8 mps 752 mmHg 28%
    16:00 +27°C° 0 mm 8 mps 752 mmHg 31%
    17:00 +26°C° 0 mm 8 mps 752 mmHg 35%
    18:00 +23°C° 0 mm 8 mps 752 mmHg 44%
    19:00 +21°C° 0 mm 7 mps 752 mmHg 54%
    20:00 +18°C° 0 mm 7 mps 752 mmHg 64%
    21:00 +17°C° 0 mm 7 mps 752 mmHg 65%
    22:00 +17°C° 0 mm 6 mps 752 mmHg 66%
    23:00 +17°C° 0 mm 6 mps 752 mmHg 68%

    9 December, Friday

    Time Temperature Precipitation Wind Pressure Humidity
    00:00 +17°C° 0 mm 6 mps 751 mmHg 70%
    01:00 +16°C° 0 mm 5 mps 751 mmHg 72%
    02:00 +17°C° 0 mm 4 mps 750 mmHg 74%
    03:00 +17°C° 0 mm 4 mps 750 mmHg 75%
    04:00 +17°C° 0 mm 4 mps 750 mmHg 76%
    05:00 +16°C° 0 mm 3 mps 750 mmHg 77%
    06:00 +17°C° 0 mm 5 mps 750 mmHg 63%
    07:00 +20°C° 0 mm 7 mps 750 mmHg 50%
    08:00 +21°C° 0 mm 10 mps 750 mmHg 37%
    09:00 +22°C° 0 mm 10 mps 750 mmHg 34%
    10:00 +22°C° 0 mm 11 mps 749 mmHg 31%
    11:00 +23°C° 0 mm 12 mps 749 mmHg 28%
    12:00 +23°C° 0 mm 12 mps 749 mmHg 27%
    13:00 +24°C° 0 mm 12 mps 749 mmHg 26%
    14:00 +24°C° 0 mm 12 mps 749 mmHg 24%
    15:00 +23°C° 0 mm 11 mps 749 mmHg 27%
    16:00 +23°C° 0 mm 10 mps 748 mmHg 30%
    17:00 +22°C° 0 mm 10 mps 748 mmHg 32%
    18:00 +19°C° 0 mm 9 mps 749 mmHg 38%
    19:00 +18°C° 0 mm 8 mps 749 mmHg 44%
    20:00 +17°C° 0 mm 7 mps 750 mmHg 50%
    21:00 +16°C° 0 mm 5 mps 750 mmHg 51%
    22:00 +17°C° 0 mm 4 mps 750 mmHg 51%
    23:00 +17°C° 0 mm 2 mps 750 mmHg 52%
    Show more